EDT,Max TemperatureF,Mean TemperatureF,Min TemperatureF,Max Dew PointF,MeanDew PointF,Min DewpointF,Max Humidity, Mean Humidity, Min Humidity, Max Sea Level PressureIn, Mean Sea Level PressureIn, Min Sea Level PressureIn, Max VisibilityMiles, Mean VisibilityMiles, Min VisibilityMiles, Max Wind SpeedMPH, Mean Wind SpeedMPH, Max Gust SpeedMPH,PrecipitationIn, CloudCover, Events, WindDirDegrees
2012-6-1,66,63,60,,,,,,,30.07,30.03,29.99,10,10,10,16,11,37,0.00,2,,114
2012-6-2,68,65,64,,,,,,,29.74,29.72,29.69,10,3,0,16,14,26,0.00,7,Fog,185
2012-6-3,86,76,66,,,,,,,29.72,29.67,29.63,10,9,3,14,10,,0.00,2,Rain,308
2012-6-4,60,56,53,,,,,,,29.71,29.66,29.64,10,10,10,12,4,,0.00,6,,16
2012-6-5,60,58,57,,,,,,,29.92,29.90,29.89,10,10,10,6,3,,0.00,6,,49
2012-6-6,66,64,64,,,,,,,29.99,29.97,29.95,10,10,10,14,12,21,0.00,3,,227
2012-6-7,68,67,66,,,,,,,29.97,29.95,29.92,10,10,10,12,4,,0.00,1,,203
2012-6-8,71,70,68,,,,,,,29.94,29.91,29.88,10,10,10,14,6,,0.00,0,,253
2012-6-9,71,70,68,,,,,,,29.99,29.93,29.91,10,10,10,0,0,,0.00,6,,-1
2012-6-10,77,74,69,,,,,,,30.16,30.11,30.07,10,10,10,8,2,,0.00,0,,150
2012-6-11,64,63,62,,,,,,,30.31,30.30,30.28,10,10,10,13,3,,0.00,1,,160
2012-6-12,68,66,64,,,,,,,30.15,30.08,30.01,10,10,7,16,12,,0.00,5,,169
2012-6-13,64,63,62,61,61,61,88,88,88,30.04,29.99,29.97,10,4,1,7,2,,0.00,8,Rain,115
2012-6-14,66,64,62,61,61,61,94,90,88,30.25,30.22,30.18,10,10,10,12,7,,0.00,3,,88
2012-6-15,77,72,66,,,,,,,30.30,30.29,30.28,10,10,10,14,9,,0.00,0,,71
2012-6-16,69,,69,,,,,,,30.34,30.31,30.29,10,10,10,16,11,,0.00,1,,122
2012-6-17,62,60,59,,,,,,,30.26,30.21,30.14,10,10,10,9,6,,0.00,3,,108
2012-6-18,62,58,53,,,,,,,30.18,30.17,30.15,10,10,10,6,1,,0.00,2,,170
2012-6-19,68,66,64,,,,,,,30.18,30.16,30.14,10,10,10,14,12,,0.00,6,,220
2012-6-20,89,,89,,,,,,,29.95,29.95,29.95,5,5,5,12,12,,0.00,0,,250
2012-6-21,91,80,69,,,,,,,29.90,29.84,29.78,10,8,5,12,8,,0.00,0,,286
2012-6-22,89,84,73,,,,,,,29.81,29.78,29.75,10,7,6,5,2,,0.00,2,,200
2012-6-23,82,78,77,,,,,,,29.87,29.86,29.86,10,10,10,13,7,,0.00,0,,285
2012-6-24,80,76,71,,,,,,,29.99,29.96,29.93,10,10,10,16,8,,0.00,1,,266
2012-6-25,69,66,64,,,,,,,29.83,29.75,29.69,10,7,0,21,11,31,0.00,6,Rain-Thunderstorm,208
2012-6-26,,,,,,,,,,,,,,,,,,,,,,
2012-6-27,78,74,71,,,,,,,29.74,29.72,29.71,10,10,10,20,15,,0.00,0,,290
2012-6-28,80,74,69,64,61,55,83,65,44,29.81,29.75,29.72,10,10,10,18,12,,0.00,0,,233
2012-6-29,84,76,69,73,70,66,100,77,62,29.89,29.66,29.60,10,8,5,14,5,20,0.00,1,,254
2012-6-30,87,81,75,70,66,59,83,61,40,29.76,29.73,29.70,10,10,7,14,7,,0.00,1,,257